Regional Weather Roundup
Issued by NWS

Home | Current Version | Previous Version | Graphics & Text | Print | Product List | Glossary On
Versions: 1 2 3 4 5 6 7 8 9 10 11 12 13 14 15 16 17 18 19 20 21 22 23 24 25 26 27 28 29 30 31 32 33 34 35 36 37 38 39 40 41 42 43 44 45 46 47 48 49 50
000
ASUS43 KDMX 091541
RWRIA

WEATHER ROUNDUP FOR IOWA
NATIONAL WEATHER SERVICE DES MOINES IA
1000 AM CDT WED JUL 09 2014

NOTE: "FAIR" INDICATES FEW OR NO CLOUDS BELOW 12,000 FEET WITH NO
SIGNIFICANT WEATHER AND/OR OBSTRUCTIONS TO VISIBILITY.

* - THESE STATIONS ARE NOT NWS STATIONS...THUS NOT UNDER NWS
QUALITY CONTROL.  THEY ALSO DO NOT REPORT WEATHER SUCH
AS PRECIPITATION OR FOG.

IAZ001>003-012>014-020>022-031>034-043>046-091600-
   NORTHWEST IOWA

CITY           SKY/WX    TMP DP  RH WIND       PRES   REMARKS
CARROLL *      SUNNY     72  55  56 CALM      30.06
CHEROKEE *     SUNNY     72  61  68 SW3       30.06
DENISON *      SUNNY     72  59  64 VRB5      30.06S
LE MARS *      SUNNY     72  61  68 SW6       30.07
ORANGE CITY *  SUNNY     72  57  60 SW7       30.07
SHELDON *      SUNNY     72  59  64 CALM      30.05
SIOUX CITY     SUNNY     70  61  73 W5        30.08
SPENCER        SUNNY     70  56  61 SW6       30.06
STORM LAKE *   SUNNY     70  57  64 VRB5      30.08R
$$

IAZ055>058-069>071-079>083-090>094-091600-
   SOUTHWEST IOWA

CITY           SKY/WX    TMP DP  RH WIND       PRES   REMARKS
ATLANTIC *     SUNNY     72  57  60 CALM      30.07
AUDUBON *      SUNNY     75  61  60 CALM      30.09
CLARINDA *     SUNNY     73  61  64 VRB3      30.10
COUNCIL BLFS * SUNNY     73  63  68 SW6       30.08
CRESTON *      SUNNY     72  55  56 NE5       30.09
HARLAN  *      SUNNY     72  55  56 SW6       30.12
LAMONI         SUNNY     71  56  58 N5        30.07
RED OAK *      SUNNY     73  61  64 SW6       30.09
SHENANDOAH *   SUNNY     73  64  73 CALM      30.10
$$

IAZ047>049-059>061-072>074-084-091600-
   CENTRAL IOWA

CITY           SKY/WX    TMP DP  RH WIND       PRES   REMARKS
AMES           SUNNY     71  55  56 N3        30.05
ANKENY *       SUNNY     72  54  53 NW6       30.06
CHARITON *     SUNNY     72  55  56 N8        30.07
DES MOINES     SUNNY     73  56  54 VRB3      30.05
GRINNELL*      SUNNY     70  57  64 NW3       30.06
KNOXVILLE *    SUNNY     70  54  56 W9        30.05
MARSHALLTOWN   SUNNY     70  57  63 VRB5      30.04
PELLA *        SUNNY     73  57  56 N3        30.07
PERRY *          N/A     72  54  53 CALM      30.06S
$$

IAZ004>006-015-016-023>025-035-036-091600-
   NORTH CENTRAL IOWA

CITY           SKY/WX    TMP DP  RH WIND       PRES   REMARKS
ALGONA *       SUNNY     72  52  49 VRB3      30.06
CLARION *      SUNNY     70  55  60 VRB5      30.05
ESTHERVILLE    SUNNY     70  51  51 W6        30.05
FORT DODGE *   SUNNY     72  55  56 SW3       30.07S
MASON CITY     SUNNY     70  56  61 NW6       30.06
FOREST CITY *  SUNNY     70  54  56 NW5       30.04
IOWA FALLS *     N/A     70  54  56 W7        30.06S
$$

IAZ007>011-017>019-026>030-037>042-050>054-066-091600-
   NORTHEAST IOWA

CITY           SKY/WX    TMP DP  RH WIND       PRES   REMARKS
CEDAR RAPIDS   SUNNY     70  54  56 N9        30.01
CHARLES CITY * SUNNY     70  57  64 W9        30.04S
CLINTON *      SUNNY     70  57  64 NW10      30.02R
DECORAH *        N/A    N/A N/A N/A MISG        N/A
DUBUQUE        SUNNY     68  55  63 N13       30.00
MONTICELLO *   SUNNY     72  54  53 N12       30.01
OELWEIN *      SUNNY     70  61  73 NW8       30.03
WATERLOO       SUNNY     70  56  61 VRB3      30.02
$$

IAZ064-065-067-068-078-091600-
   EAST CENTRAL IOWA

CITY           SKY/WX    TMP DP  RH WIND       PRES   REMARKS
DAVENPORT      SUNNY     70  57  63 NW13      30.00
IOWA CITY      SUNNY     71  55  56 N10       30.03
MT. PLEASANT * SUNNY     73  57  56 N9        30.03
MUSCATINE *    SUNNY     73  54  49 N12       30.02
QUAD CITIES    SUNNY     73  56  54 NW7       29.98
$$

IAZ062-063-075>077-085>089-095>099-091600-
   SOUTHEAST IOWA

CITY           SKY/WX    TMP DP  RH WIND       PRES   REMARKS
BURLINGTON     SUNNY     74  57  55 N9        30.01
FAIRFIELD *    SUNNY     72  57  60 N9        30.04
FORT MADISON * SUNNY     75  61  60 N9        30.03
KEOKUK *       SUNNY     75  59  57 NW10      30.01
OSKALOOSA *      N/A     72  57  60 N7        30.05
CENTERVILLE *  SUNNY     73  57  56 N10       30.08
OTTUMWA        SUNNY     71  58  63 N9        30.04
WASHINGTON *   SUNNY     73  57  56 N8        30.03
$$

ABBREVIATIONS USED IN REMARKS
   TC - TEMPERATURES IN CELSIUS
  WCI - WIND CHILL INDEX
   HX - HEAT INDEX
  VSB - VISIBILITY
$$


USA.gov is the U.S. government's official web portal to all federal, state and local government web resources and services.